{"data":{"norad_id":64802,"epoch":"2026-05-24T20:50:42.768384Z","epoch_age_seconds":100546,"freshness":"FRESH","line1":"1 64802U 25150N   26144.86855056  .00002479  00000+0  21545-3 0  9994","line2":"2 64802  70.0005 302.5388 0003126 267.9999  92.0802 14.98336495 47921","mean_motion":14.98336495,"eccentricity":0.0003126,"inclination_deg":70.0005,"raan_deg":302.5388,"arg_perigee_deg":267.9999,"mean_anomaly_deg":92.0802,"bstar":0.00021545,"rev_number":4792,"period_min":96.10658252037,"perigee_km":569.86318174616,"apogee_km":574.20842978433,"semimajor_km":6950.1728057652,"source":"CELESTRAK","updated_at":"2026-05-25T13:38:20.566036Z"}}